Find Starlink 5811

NORAD ID: 55787 Int'l Des: 2023-028 Owner: SPXS Country: US Constellation: starlink operational
LEOCIRCULAR

リアルタイム位置

3D地球を読み込み中...

Starlink 5811について

説明を読み込み中...

次回通過

Passes for default location (London). Set your location on the main map for personalized predictions.

高度履歴

Loading altitude history...

軌道要素

1 55787U 23028AY 26104.74453074 -.00001587 00000-0 -12520-3 0 9990
2 55787 69.9984 113.6775 0003800 272.7620 87.3104 14.98329160172428
Epoch: Apr 14, 2026 • Age: 12 hours

現在のステータス

高度 579.8 km
速度 7.57 km/s
衛星直下点 42.82°N, 15.76°W
打ち上げ日 Mar 3, 2023
運用期間 3.1 years
タイプ internet

技術仕様

分類 Payload
質量 305.00 kg
乾燥質量 290.00 kg
総質量 305.00 kg
長さ 0.20 m
直径 2.80 m
スパン 9.00 m
形状 Box + pan
製造者 SPXS
バスタイプ Starlink
フェーズステータス In Orbit
所有者/国 SPXS/US

Most Searched